NSZ11X EKCH-ESSA

Flight info

Callsign NSZ11X
Flight time N/A
Altitude 37000
Route KEMAX N851 ROXEN DCT MIKNA N851 PELUP Z226 NILUG
Aircraft B38M/M-SDE1FGHILORVWXY/HB1

Departure

Time 2026-04-22 12:17
Airport Copenhagen Kastrup Airport (EKCH)

Arrival

Time N/A
Airport Stockholm-Arlanda Airport (ESSA)
Time Latitude Longitude Altitude Speed Heading
2026-04-22 11:44 55.62881 12.63867 19 ft 0 kts 12°
2026-04-22 12:06 55.62877 12.63866 19 ft 3 kts 12°
2026-04-22 12:06 55.62853 12.63853 22 ft 4 kts 40°
2026-04-22 12:06 55.62844 12.63820 20 ft 3 kts 101°
2026-04-22 12:07 55.62849 12.63783 23 ft 4 kts 104°
2026-04-22 12:07 55.62855 12.63737 21 ft 4 kts 103°
2026-04-22 12:07 55.62859 12.63691 19 ft 4 kts 90°
2026-04-22 12:07 55.62859 12.63667 19 ft 1 kts 89°
2026-04-22 12:10 55.62859 12.63672 19 ft 2 kts 89°
2026-04-22 12:11 55.62856 12.63726 19 ft 7 kts 99°
2026-04-22 12:11 55.62836 12.63878 19 ft 18 kts 104°
2026-04-22 12:11 55.62739 12.63917 19 ft 19 kts 212°
2026-04-22 12:11 55.62631 12.63905 20 ft 18 kts 124°
2026-04-22 12:12 55.62558 12.64103 19 ft 21 kts 123°
2026-04-22 12:12 55.62472 12.64326 19 ft 23 kts 128°
2026-04-22 12:12 55.62371 12.64573 19 ft 26 kts 123°
2026-04-22 12:12 55.62272 12.64787 20 ft 20 kts 162°
2026-04-22 12:13 55.62141 12.64695 21 ft 22 kts 213°
2026-04-22 12:13 55.62002 12.64536 19 ft 25 kts 208°
2026-04-22 12:13 55.61823 12.64532 20 ft 27 kts 169°
2026-04-22 12:13 55.61638 12.64523 22 ft 27 kts 208°
2026-04-22 12:14 55.61475 12.64337 21 ft 29 kts 213°
2026-04-22 12:14 55.61327 12.64167 19 ft 23 kts 213°
2026-04-22 12:14 55.61184 12.64002 19 ft 26 kts 213°
2026-04-22 12:14 55.61026 12.63822 19 ft 28 kts 213°
2026-04-22 12:15 55.60936 12.63718 19 ft 23 kts 213°
2026-04-22 12:15 55.60795 12.63555 21 ft 25 kts 213°
2026-04-22 12:15 55.60642 12.63374 19 ft 28 kts 218°
2026-04-22 12:15 55.60532 12.63219 19 ft 16 kts 199°
2026-04-22 12:16 55.60450 12.63290 19 ft 12 kts 130°
2026-04-22 12:16 55.60409 12.63425 20 ft 14 kts 83°
2026-04-22 12:16 55.60502 12.63602 20 ft 38 kts 41°
2026-04-22 12:16 55.60869 12.64167 21 ft 100 kts 41°
2026-04-22 12:17 55.61521 12.65174 22 ft 147 kts 40°
2026-04-22 12:17 55.62301 12.66423 407 ft 155 kts 37°
2026-04-22 12:17 55.63147 12.67773 828 ft 167 kts 34°
2026-04-22 12:17 55.64008 12.69096 1559 ft 160 kts 35°
2026-04-22 12:18 55.64892 12.70430 2180 ft 178 kts 35°
2026-04-22 12:18 55.65907 12.71932 2729 ft 202 kts 34°
2026-04-22 12:18 55.67045 12.73620 3332 ft 223 kts 35°
2026-04-22 12:18 55.68284 12.75473 3979 ft 242 kts 35°
2026-04-22 12:19 55.69605 12.77447 4832 ft 250 kts 36°
2026-04-22 12:19 55.70940 12.79446 5858 ft 253 kts 36°
2026-04-22 12:19 55.72294 12.81472 6829 ft 256 kts 37°
2026-04-22 12:19 55.73662 12.83519 7749 ft 259 kts 37°
2026-04-22 12:20 55.75033 12.85643 8662 ft 264 kts 38°
2026-04-22 12:20 55.76417 12.87810 9602 ft 267 kts 39°
2026-04-22 12:20 55.77815 12.90008 10563 ft 266 kts 39°
2026-04-22 12:20 55.79193 12.92203 11385 ft 273 kts 40°
2026-04-22 12:21 55.80637 12.94476 12090 ft 285 kts 39°
2026-04-22 12:21 55.82181 12.96886 12553 ft 305 kts 40°
2026-04-22 12:21 55.83809 12.99444 13144 ft 319 kts 40°
2026-04-22 12:21 55.85489 13.02091 13961 ft 325 kts 40°
2026-04-22 12:22 55.87186 13.04772 14828 ft 328 kts 40°
2026-04-22 12:22 55.88906 13.07493 15654 ft 332 kts 41°
2026-04-22 12:22 55.90643 13.10244 16511 ft 336 kts 41°
2026-04-22 12:22 55.92396 13.13025 17378 ft 338 kts 41°
2026-04-22 12:23 55.94162 13.15830 18178 ft 343 kts 41°
2026-04-22 12:23 55.95962 13.18692 18852 ft 349 kts 42°
2026-04-22 12:23 55.97776 13.21580 19600 ft 350 kts 42°
2026-04-22 12:23 55.99604 13.24495 20226 ft 356 kts 42°
2026-04-22 12:24 56.01458 13.27455 20904 ft 358 kts 42°
2026-04-22 12:24 56.03321 13.30433 21611 ft 361 kts 42°
2026-04-22 12:24 56.05210 13.33457 22202 ft 366 kts 43°
2026-04-22 12:24 56.07113 13.36508 22904 ft 369 kts 43°
2026-04-22 12:25 56.09035 13.39592 23485 ft 374 kts 43°
2026-04-22 12:25 56.10980 13.42718 24074 ft 377 kts 43°
2026-04-22 12:25 56.12978 13.45776 24595 ft 380 kts 37°
2026-04-22 12:25 56.15143 13.48514 25159 ft 381 kts 38°
2026-04-22 12:26 56.17298 13.51302 25735 ft 383 kts 39°
2026-04-22 12:26 56.19424 13.54084 26276 ft 384 kts 39°
2026-04-22 12:26 56.21580 13.56928 26819 ft 385 kts 40°
2026-04-22 12:26 56.23739 13.59788 27363 ft 387 kts 40°
2026-04-22 12:27 56.25908 13.62663 27873 ft 388 kts 41°
2026-04-22 12:27 56.28086 13.65557 28390 ft 390 kts 41°
2026-04-22 12:27 56.30270 13.68462 28891 ft 391 kts 41°
2026-04-22 12:27 56.32459 13.71378 29382 ft 393 kts 42°
2026-04-22 12:28 56.34668 13.74305 29871 ft 394 kts 42°
2026-04-22 12:28 56.36882 13.77235 30317 ft 396 kts 41°
2026-04-22 12:28 56.39107 13.80187 30729 ft 398 kts 42°
2026-04-22 12:28 56.41340 13.83153 31123 ft 398 kts 42°
2026-04-22 12:29 56.43572 13.86123 31527 ft 400 kts 42°
2026-04-22 12:29 56.45816 13.89111 31924 ft 401 kts 42°
2026-04-22 12:29 56.48060 13.92106 32318 ft 402 kts 42°
2026-04-22 12:29 56.50303 13.95104 32843 ft 399 kts 43°
2026-04-22 12:30 56.54729 14.01032 34028 ft 392 kts 43°
2026-04-22 12:30 56.56908 14.03953 34571 ft 388 kts 43°
2026-04-22 12:30 56.59072 14.06861 34935 ft 388 kts 42°
2026-04-22 12:31 56.61246 14.09787 35189 ft 390 kts 42°
2026-04-22 12:31 56.63432 14.12734 35469 ft 392 kts 42°
2026-04-22 12:31 56.65598 14.15658 35747 ft 394 kts 41°
2026-04-22 12:31 56.67802 14.18638 36027 ft 396 kts 41°
2026-04-22 12:32 56.70014 14.21632 36297 ft 397 kts 41°
2026-04-22 12:32 56.74459 14.27665 36843 ft 400 kts 41°
2026-04-22 12:32 56.76697 14.30709 37099 ft 402 kts 41°
2026-04-22 12:33 56.78945 14.33770 37203 ft 404 kts 41°
2026-04-22 12:33 56.81194 14.36839 37188 ft 404 kts 41°
2026-04-22 12:33 56.85673 14.42964 37186 ft 401 kts 41°
2026-04-22 12:34 56.90135 14.49084 37183 ft 400 kts 41°
2026-04-22 12:34 56.94589 14.55213 37186 ft 401 kts 41°
2026-04-22 12:35 56.99042 14.61358 37183 ft 401 kts 41°
2026-04-22 12:35 57.03468 14.67484 37179 ft 401 kts 41°
2026-04-22 12:36 57.07916 14.73658 37169 ft 401 kts 41°
2026-04-22 12:36 57.12359 14.79848 37183 ft 401 kts 41°
2026-04-22 12:37 57.16798 14.86049 37177 ft 401 kts 41°
2026-04-22 12:37 57.21237 14.92270 37178 ft 401 kts 41°
2026-04-22 12:38 57.25669 14.98500 37175 ft 401 kts 41°
2026-04-22 12:38 57.30101 15.04749 37159 ft 401 kts 41°
2026-04-22 12:39 57.36730 15.14133 37177 ft 399 kts 40°
2026-04-22 12:40 57.41141 15.20402 37168 ft 400 kts 40°
2026-04-22 12:40 57.45548 15.26685 37160 ft 399 kts 40°
2026-04-22 12:41 57.49953 15.32983 37170 ft 400 kts 40°
2026-04-22 12:41 57.54356 15.39300 37164 ft 400 kts 40°
2026-04-22 12:42 57.58755 15.45630 37168 ft 400 kts 40°
2026-04-22 12:42 57.63122 15.51934 37163 ft 400 kts 40°
2026-04-22 12:43 57.67515 15.58295 37161 ft 400 kts 40°
2026-04-22 12:43 57.71902 15.64667 37158 ft 399 kts 40°
2026-04-22 12:44 57.76291 15.71062 37154 ft 400 kts 40°
2026-04-22 12:44 57.80671 15.77463 37154 ft 399 kts 40°
2026-04-22 12:45 57.85054 15.83884 37148 ft 400 kts 40°
2026-04-22 12:45 57.89429 15.90314 37149 ft 399 kts 41°
2026-04-22 12:46 57.93796 15.96772 37149 ft 399 kts 41°
2026-04-22 12:46 57.98164 16.03240 37151 ft 399 kts 41°
2026-04-22 12:47 58.02532 16.09726 37129 ft 399 kts 40°
2026-04-22 12:47 58.06878 16.16202 37158 ft 397 kts 40°
2026-04-22 12:47 58.09036 16.19426 36892 ft 393 kts 40°
2026-04-22 12:48 58.11180 16.22635 36159 ft 393 kts 40°
2026-04-22 12:48 58.13313 16.25831 35697 ft 388 kts 40°
2026-04-22 12:48 58.15411 16.28979 35206 ft 383 kts 40°
2026-04-22 12:48 58.17495 16.32112 34534 ft 383 kts 40°
2026-04-22 12:49 58.19590 16.35264 33690 ft 386 kts 40°
2026-04-22 12:49 58.21694 16.38436 32926 ft 386 kts 40°
2026-04-22 12:49 58.23789 16.41599 32388 ft 382 kts 40°
2026-04-22 12:49 58.25850 16.44713 31916 ft 376 kts 40°
2026-04-22 12:50 58.27820 16.47922 31374 ft 373 kts 48°
2026-04-22 12:50 58.29411 16.51862 30798 ft 377 kts 52°
2026-04-22 12:50 58.29926 16.53148 30629 ft 378 kts 51°